OSCAR 24

Satellite information

Favourite Embed

Satellite Type and Status

PAYLOADIN ORBIT

Key statistics

Satellite OSCAR 24 at a glance.

Uptime

14637

Days in orbit

Revolutions

≈ 13.4

Per day

Orbit

SSO

Sun Synchronous Orbit

Inclination

90.2

Latest

Satellite identification and parameters

Extended collection of information and parameters for OSCAR 24.

Object identification

Identified? True

Debris? False

Object name: OSCAR 24

International designator: 1985-066B

Object number (NORAD): 15936

Object ID (CCSDS): 15936

Country: UNITED STATES OF AMERICA (US)

Current information (Y/N): Y

RCS size: LARGE

Orbital parameters

Period: 107.792 minutes

Inclination: 90.1744 deg

SMA: 7502.684 km

Apoapsis: 1251.923 km

Periapsis: 997.175 km

RAAN: 90.493 deg

Eccentricy: 0.01697713

Argument of periapsis: 26.6493 deg

Mean anomaly: 35.0171 deg

Mean motion: 13.35911824 rev/day

Mean motion (dot): 0.00000087 rev/day2

B* drag term: 0.00014011966 1/REarth

Two-line elements (TLE)

Creation date: Aug. 30, 2025, 3:38 a.m.

Reference frame: TEME

Reference center: EARTH

Epoch: Aug. 29, 2025, 8:49 p.m. UTC

TLE line 0: 0 OSCAR 24

TLE line 1: 1 15936U 85066B 25241.86801106 .00000087 00000-0 14012-3 0 9999

TLE line 2: 2 15936 90.1744 90.4930 0169771 26.6493 35.0171 13.35911824952434

Live tracking on map

Real-time ground track for satellite OSCAR 24.

In-orbit conjunctions

A list of the most updated potential collisions computed for object OSCAR 24.

Target Orbit TCA Probability of collision Miss distance Type
CZ-4C DEB SSO 2025-02-21 21:40:50 0.0001005663 284.0 (m) DEBRIS

Associated space launch

The Transit-O series of satellites that closely followed the design of Transit 5C-1 were also called “Oscars” (Oscar is the phonetic alphabet for “O”, i. e., operational). They were also called NNS (Navy Navigation Satellite) or shortened NavSat.

OSCAR 24 was lifted into orbit during the mission ‘Scout G-1 | Transit-O 24,30’, on board a Scout G-1 space rocket.

The launch took place on Aug. 3, 1985, 3:31 a.m. from Space Launch Complex 5.

For more information about the launch, click the button.

Launch to space Scout G-1 | Transit-O 24,30
Scout G-1 | Transit-O 24,30

Agency: N/A

Status: Launch Successful

Launch date: Aug. 3, 1985, 3:31 a.m. UTC

Rocket: Scout G-1

Launch pad: Space Launch Complex 5

Location: Vandenberg SFB, CA, USA

...

Latest news about this satellite

There are no fresh news available about this satellite. Check back as we update our databases every day.


Newsletter sign-up

Weekly statistics, charts and insights to help you stay on top of the space industry.